Regional Weather Roundup
Issued by NWS Mt. Holly, NJ

Home | Current Version | Previous Version | Text Only | Print | Product List | Glossary On
Versions: 1 2 3 4 5 6 7 8 9 10 11 12 13 14 15 16 17 18 19 20 21 22 23 24 25 26 27 28 29 30 31 32 33 34 35 36 37 38 39 40 41 42 43 44 45 46 47 48 49
000
ASUS41 KPHI 040911
RWRPHI

REGIONAL WEATHER ROUNDUP
NATIONAL WEATHER SERVICE MOUNT HOLLY NJ
400 AM EST WED MAR 04 2015

NOTE:  "FAIR" INDICATES FEW OR NO CLOUDS BELOW 12,000 FEET WITH NO
SIGNIFICANT WEATHER AND/OR OBSTRUCTIONS TO VISIBILITY.

 * = STATION DOES NOT REPORT PRECIPITATION (E.G. RAIN, SNOW, ETC.)
        OR FOG.

NJZ015>026-041000-
SOUTHERN NEW JERSEY

CITY           SKY/WX    TMP DP  RH WIND       PRES   REMARKS
POMONA         FOG       39  38  96 W9        29.82R VSB 1/2 WCI  33
RIO GRANDE*    CLOUDY    39  36  87 W8        29.85R WCI  34
MILLVILLE      LGT RAIN  39  38  96 W7        29.83R FOG     WCI  34
WRIGHTSTOWN    LGT RAIN  36  36 100 SW12      29.75F WCI  27
MOUNT HOLLY    LGT RAIN  35  34  96 SW6       29.79F FOG     WCI  30
TRENTON        FRZ RAIN  34  32  92 SW7       29.77R WCI  28

$$
NJZ001>014-041000-
NORTHERN NEW JERSEY

CITY           SKY/WX    TMP DP  RH WIND       PRES   REMARKS
SUSSEX         CLOUDY    33  30  88 CALM      29.74S
ANDOVER*         N/A     33  31  92 CALM      29.74R
MORRISTOWN     CLOUDY    36  32  87 SW3       29.74F
NEWARK         CLOUDY    35  33  92 W7        29.75S WCI  29
TETERBORO      CLOUDY    35  32  88 S5        29.74F WCI  31
CALDWELL       CLOUDY    34  31  88 CALM      29.74F
SOMERVILLE     CLOUDY    34  32  92 S3        29.74F FOG
ALLAIRE*       CLOUDY    37  32  81 SW12      29.75F WCI  30
TOMS RIVER*    CLOUDY    37  36  93 CALM      29.77F

$$
PAZ043-044-047-054-055-060>062-066>071-041000-
EASTERN PENNSYLVANIA

CITY           SKY/WX    TMP DP  RH WIND       PRES   REMARKS
PHILADELPHIA   CLOUDY    35  33  92 SW12      29.81F FOG     WCI  27
NORTH PHILA    CLOUDY    37  32  82 SW7       29.79F HAZE    WCI  32
BLUE BELL      MOCLDY    36  34  93 CALM      29.77R
DOYLESTOWN     CLOUDY    32  32 100 S6        29.76S WCI  26
QUAKERTOWN*    MOCLDY    32  32 100 CALM      29.76S
POTTSTOWN      CLOUDY    34  34 100 W3        29.79F
LANCASTER      CLOUDY    33  32  96 CALM      29.78R FOG
COATESVILLE    MIX PCPN  36  36 100 SW6       29.78R WCI  31
READING        CLOUDY    33  31  92 CALM      29.78R FOG
ALLENTOWN      SLEET     34  30  85 SW8       29.76R FOG     WCI  27
MOUNT POCONO   FOG       33  31  92 NW10      29.68R VSB 3/4 WCI  25
HAZLETON       LGT RAIN  36  34  93 CALM      29.73R
WILKES BARRE   CLOUDY    31  27  85 CALM      29.75R FOG

$$
DEZALL-MDZ008-012-015-019-020-041000-
DELAWARE AND EASTERN MARYLAND

CITY           SKY/WX    TMP DP  RH WIND       PRES   REMARKS
WILMINGTON     CLOUDY    34  33  96 SW3       29.82R
DOVER          LGT RAIN  41  41 100 W7        29.85R
GEORGETOWN     CLOUDY    43  41  93 W9        29.83R
EASTON         RAIN      42  42 100 W3        29.89R
PATUXENT       MOCLDY    45  41  86 SW17G25   29.82S
OCEAN CITY     CLOUDY    46  44  93 SW20G30   29.83F
WALLOPS ISLAND CLOUDY    49  48  97 W13G26    29.87S
CAMBRIDGE      CLOUDY    43  39  87 CALM      29.85R
SALISBURY      CLOUDY    47  43  86 SW20G29   29.82F

$$
PAZ001-021-NYZ056-072-MDZ011-DCZ001-041000-
OTHER NEARBY LOCATIONS

CITY           SKY/WX    TMP DP  RH WIND       PRES   REMARKS
HARRISBURG     CLOUDY    33  30  88 CALM      29.80R FOG
STATE COLLEGE  MIX PCPN  34  33  98 SW7       29.74R WCI  28
WILLIAMSPORT   CLOUDY    30  27  88 NE3       29.77R
BINGHAMTON     CLOUDY    29  28  96 SW5       29.66R FOG     WCI  24
NEW YORK CITY  CLOUDY    36  31  82 W3        29.77S
BALTIMORE      LGT RAIN  37  35  92 SW7       29.81F WCI  32
WASHINGTON DC  LGT RAIN  42  34  73 S5        29.87R

$$



USA.gov is the U.S. government's official web portal to all federal, state and local government web resources and services.